Volver al catálogo

PUNCH-WFI01

ActivoCienciaSSO
NORAD 63179·PAYLOAD·🇺🇸 United States

Lanzado Mar 12, 2025 desde Vandenberg Space Force Base

Loading…

Próximos Pases (próximas 24 horas)

TLE

ActualizadoSource: Space-Track

Época: Sep 14, 2026, 12:03 UTC

1 63179U 25047B   26257.50242335  .00000360  00000-0  61765-4 0  9998
2 63179  97.9606  81.2457 0007667 248.3961 111.6431 14.74427337 81223

Sigue PUNCH-WFI01 en tiempo real con AllMySat

Download on the App Store